User: anonymous   Login
Location: Unspecified
(0.0000°N, 0.0000°E)
Time: 15:08:51
(UTC+01:00)
Language:

Palapa 6 Rocket - Orbit

View from above orbital plane
View from above orbital plane
View from above satellite
View from above satellite

Ground track
Ground track

The orbit data is extracted from the following two-line orbital elements,

1 20571U 90034B   15063.61923744  .00004685  00000-0  67066-3 0  9993
2 20571 022.7501 128.3941 0513630 266.7886 225.5073 14.10598152273858
Epoch (UTC): 04 March 2015 14:51:42
Eccentricity: 0.0513630
inclination: 22.7501°
perigee height: 485 km
apogee height: 1229 km
right ascension of ascending node: 128.3941°
argument of perigee: 266.7886°
revolutions per day: 14.10598152
mean anomaly at epoch: 225.5073°
orbit number at epoch: 27385

The dashed part of the orbit path shows where the satellite is in the earth's shadow,  

DLR